sat.trackr.live / text

‹ back to catalog

STARLINK-31723

NORAD 59553 · 2024-074V

PAYLOAD ACTIVE UNKNOWN

§ Identity

Operator
Country
US
Launch date
2024-04-18
Launch site
AFETR
Launch vehicle
Mass (kg)
RCS (m²)

Purposes: comms

External: N2YO · Heavens-Above · Gunter

§ Orbital elements

Epoch: 2026-05-25T01:18:56.441088Z

Period
94.27 min
Inclination
43.0013°
Eccentricity
0.0001264
Mean motion
15.27579273 rev/d
Perigee alt
482.2 km
Apogee alt
483.9 km
Semi-major
6,861.2 km
B*
2.9116e-5
RAAN
272.2293°
Arg perigee
274.2313°
Mean anomaly
85.8394°
Rev number
11,769

§ Raw data

STARLINK-317231 59553U 24074V   26145.05481992  .00000539  00000+0  29116-4 0  99992 59553  43.0013 272.2293 0001264 274.2313  85.8394 15.27579273117691

JSON: /api/v1/satellites/59553 · /tle

For live sub-satellite position, see the globe view (requires WebGL).

§ Visibility from observer

Set your observer location to see the next 7 days of passes ≥ 10°. The values pass through the URL so the page stays shareable.

No JS? Fill the form by hand. The geolocation button needs JavaScript.